Location: Newark
(16.3678°N, 77.8722°E)
Time: 14:46:24
(UTC+00:00)

S-56A Canister/Altair - Pass Details

Date: 14 December 2019
Orbit: 634 x 2498 km, 38.9° (Epoch: 28 January)

Event Time Altitude Azimuth Distance (km) Brightness Sun altitude
Rises 01:39:40 0° 229° (SW) 4,398 11.2 6.1°
Reaches altitude 10° 01:42:13 10° 229° (SW) 3,639 10.8 6.6°
Maximum altitude 01:52:08 87° 140° (SE) 1,971 9.8 8.7°
Drops below altitude 10° 02:06:24 10° 53° (NE) 5,046 12.1 11.7°
Sets 02:10:36 0° 53° (NE) 6,143 12.5 12.6°
